N66M KTPA-KJAX

Flight info

Callsign N66M
Flight time 0h 42m
Altitude 15000
Route BAYP02 WILON TEBOW
Aircraft E55P/L-S/L

Departure

Time 2026-05-05 01:23
Airport Tampa International Airport (KTPA)

Arrival

Time 2026-05-05 02:05
Airport Jacksonville International Airport (KJAX)
Time Latitude Longitude Altitude Speed Heading
2026-05-05 01:06 27.96718 -82.52653 17 ft 0 kts 271°
2026-05-05 01:18 27.96718 -82.52655 17 ft 0 kts 270°
2026-05-05 01:18 27.96717 -82.52670 17 ft 3 kts 252°
2026-05-05 01:19 27.96694 -82.52689 17 ft 4 kts 189°
2026-05-05 01:19 27.96651 -82.52693 17 ft 7 kts 184°
2026-05-05 01:19 27.96616 -82.52743 15 ft 10 kts 271°
2026-05-05 01:19 27.96561 -82.52772 14 ft 10 kts 179°
2026-05-05 01:20 27.96489 -82.52773 14 ft 10 kts 181°
2026-05-05 01:20 27.96449 -82.52793 14 ft 4 kts 234°
2026-05-05 01:20 27.96447 -82.52797 14 ft 0 kts 236°
2026-05-05 01:21 27.96446 -82.52798 14 ft 0 kts 236°
2026-05-05 01:22 27.96442 -82.52810 14 ft 3 kts 255°
2026-05-05 01:22 27.96440 -82.52846 14 ft 6 kts 276°
2026-05-05 01:22 27.96472 -82.52892 13 ft 8 kts 338°
2026-05-05 01:22 27.96535 -82.52896 14 ft 13 kts
2026-05-05 01:23 27.96949 -82.52881 18 ft 110 kts
2026-05-05 01:23 27.97925 -82.52865 362 ft 160 kts
2026-05-05 01:23 27.99072 -82.52947 1151 ft 171 kts 353°
2026-05-05 01:23 28.00299 -82.53252 1775 ft 191 kts 352°
2026-05-05 01:24 28.01622 -82.53560 2596 ft 198 kts 353°
2026-05-05 01:24 28.02955 -82.53854 3496 ft 196 kts 352°
2026-05-05 01:24 28.04265 -82.54147 4153 ft 189 kts 352°
2026-05-05 01:24 28.05570 -82.54436 4561 ft 193 kts 351°
2026-05-05 01:25 28.06893 -82.54726 4995 ft 196 kts 351°
2026-05-05 01:25 28.08262 -82.55034 5357 ft 203 kts 351°
2026-05-05 01:25 28.09673 -82.55341 5720 ft 209 kts 350°
2026-05-05 01:25 28.10842 -82.55598 5956 ft 216 kts 349°
2026-05-05 01:26 28.12573 -82.55978 6003 ft 224 kts 348°
2026-05-05 01:26 28.14123 -82.56331 6008 ft 227 kts 348°
2026-05-05 01:26 28.15680 -82.56679 6012 ft 228 kts 349°
2026-05-05 01:26 28.17254 -82.57033 5998 ft 227 kts 350°
2026-05-05 01:27 28.18807 -82.57374 5996 ft 223 kts 351°
2026-05-05 01:27 28.20329 -82.57641 5995 ft 218 kts 359°
2026-05-05 01:27 28.21838 -82.57658 6006 ft 216 kts
2026-05-05 01:27 28.23368 -82.57697 6015 ft 218 kts
2026-05-05 01:28 28.24890 -82.57740 6011 ft 223 kts 359°
2026-05-05 01:28 28.26485 -82.57780 6023 ft 228 kts 358°
2026-05-05 01:28 28.28095 -82.57825 6018 ft 231 kts 357°
2026-05-05 01:28 28.29714 -82.57880 6002 ft 230 kts 357°
2026-05-05 01:29 28.31323 -82.57928 5994 ft 226 kts 357°
2026-05-05 01:29 28.32863 -82.57980 6003 ft 221 kts 358°
2026-05-05 01:29 28.34417 -82.58025 6011 ft 217 kts 359°
2026-05-05 01:29 28.35932 -82.58069 6008 ft 217 kts 359°
2026-05-05 01:30 28.37452 -82.58106 6008 ft 223 kts 359°
2026-05-05 01:30 28.39041 -82.58144 6416 ft 228 kts 359°
2026-05-05 01:30 28.40699 -82.58179 6935 ft 245 kts 358°
2026-05-05 01:30 28.42457 -82.58226 7520 ft 256 kts 358°
2026-05-05 01:31 28.44212 -82.58266 8201 ft 252 kts 357°
2026-05-05 01:31 28.45976 -82.58312 8707 ft 255 kts 356°
2026-05-05 01:31 28.47766 -82.58356 9233 ft 258 kts 355°
2026-05-05 01:31 28.49574 -82.58399 9745 ft 259 kts 355°
2026-05-05 01:32 28.51389 -82.58450 10306 ft 262 kts 355°
2026-05-05 01:32 28.53257 -82.58498 10987 ft 270 kts 355°
2026-05-05 01:32 28.55191 -82.58552 11537 ft 283 kts 355°
2026-05-05 01:32 28.57193 -82.58598 12050 ft 296 kts 355°
2026-05-05 01:33 28.59319 -82.58659 12569 ft 308 kts 356°
2026-05-05 01:33 28.61513 -82.58708 13072 ft 319 kts 355°
2026-05-05 01:33 28.63776 -82.58770 13575 ft 329 kts 356°
2026-05-05 01:33 28.66107 -82.58825 14055 ft 338 kts 356°
2026-05-05 01:34 28.68495 -82.59021 14543 ft 344 kts 349°
2026-05-05 01:34 28.70897 -82.59374 14958 ft 352 kts 350°
2026-05-05 01:34 28.73332 -82.59725 15019 ft 351 kts 349°
2026-05-05 01:34 28.75775 -82.60058 15020 ft 350 kts 349°
2026-05-05 01:35 28.78180 -82.60401 15020 ft 349 kts 349°
2026-05-05 01:35 28.80595 -82.60737 15015 ft 349 kts 349°
2026-05-05 01:35 28.83018 -82.61072 15018 ft 350 kts 349°
2026-05-05 01:35 28.85472 -82.61420 15020 ft 351 kts 350°
2026-05-05 01:36 28.87910 -82.61757 15016 ft 352 kts 349°
2026-05-05 01:36 28.90352 -82.62098 15018 ft 352 kts 349°
2026-05-05 01:36 28.92776 -82.62435 15018 ft 351 kts 349°
2026-05-05 01:36 28.95232 -82.62780 15019 ft 349 kts 350°
2026-05-05 01:37 28.97636 -82.63117 15025 ft 349 kts 349°
2026-05-05 01:37 29.00071 -82.63458 15022 ft 348 kts 349°
2026-05-05 01:37 29.02470 -82.63792 15011 ft 347 kts 350°
2026-05-05 01:37 29.04878 -82.64130 15008 ft 347 kts 350°
2026-05-05 01:38 29.07292 -82.64472 15008 ft 346 kts 350°
2026-05-05 01:38 29.09675 -82.64802 15003 ft 346 kts 349°
2026-05-05 01:38 29.12102 -82.65143 15011 ft 347 kts 350°
2026-05-05 01:38 29.14506 -82.65482 15022 ft 348 kts 350°
2026-05-05 01:39 29.16913 -82.65820 15014 ft 350 kts 350°
2026-05-05 01:39 29.19360 -82.66160 15012 ft 349 kts 350°
2026-05-05 01:39 29.21771 -82.66503 15013 ft 348 kts 350°
2026-05-05 01:39 29.24168 -82.66835 15010 ft 347 kts 349°
2026-05-05 01:40 29.26583 -82.67178 15008 ft 347 kts 350°
2026-05-05 01:40 29.29003 -82.67521 14908 ft 351 kts 350°
2026-05-05 01:40 29.31451 -82.67863 14673 ft 350 kts 350°
2026-05-05 01:40 29.33835 -82.68201 14441 ft 344 kts 350°
2026-05-05 01:41 29.36203 -82.68537 14196 ft 337 kts 351°
2026-05-05 01:41 29.38546 -82.68739 13941 ft 334 kts 358°
2026-05-05 01:41 29.40865 -82.68449 13699 ft 331 kts
2026-05-05 01:41 29.43052 -82.67709 13459 ft 329 kts 18°
2026-05-05 01:42 29.45106 -82.66548 13211 ft 327 kts 30°
2026-05-05 01:42 29.46918 -82.64967 12972 ft 325 kts 40°
2026-05-05 01:42 29.48625 -82.63263 12735 ft 322 kts 38°
2026-05-05 01:42 29.50333 -82.61655 12496 ft 319 kts 37°
2026-05-05 01:43 29.52073 -82.60054 12247 ft 317 kts 36°
2026-05-05 01:43 29.53789 -82.58485 12005 ft 315 kts 36°
2026-05-05 01:43 29.55508 -82.56929 11775 ft 313 kts 36°
2026-05-05 01:43 29.57231 -82.55363 11529 ft 311 kts 36°
2026-05-05 01:44 29.58914 -82.53844 11281 ft 309 kts 36°
2026-05-05 01:44 29.60621 -82.52293 11023 ft 307 kts 36°
2026-05-05 01:44 29.62287 -82.50782 10968 ft 301 kts 36°
2026-05-05 01:44 29.63922 -82.49299 10958 ft 297 kts 36°
2026-05-05 01:45 29.65531 -82.47836 10964 ft 296 kts 36°
2026-05-05 01:45 29.67177 -82.46344 10960 ft 299 kts 36°
2026-05-05 01:45 29.68813 -82.44855 10966 ft 302 kts 37°
2026-05-05 01:45 29.70493 -82.43331 10969 ft 305 kts 36°
2026-05-05 01:46 29.72172 -82.41804 10975 ft 305 kts 36°
2026-05-05 01:46 29.73819 -82.40305 10964 ft 302 kts 36°
2026-05-05 01:46 29.75485 -82.38789 10971 ft 299 kts 36°
2026-05-05 01:46 29.77099 -82.37315 10965 ft 297 kts 36°
2026-05-05 01:47 29.78743 -82.35825 10962 ft 298 kts 36°
2026-05-05 01:47 29.80365 -82.34344 10972 ft 299 kts 37°
2026-05-05 01:47 29.82030 -82.32826 10976 ft 300 kts 37°
2026-05-05 01:47 29.83668 -82.31331 10984 ft 301 kts 37°
2026-05-05 01:48 29.85329 -82.29816 10969 ft 300 kts 37°
2026-05-05 01:48 29.86961 -82.28323 10982 ft 299 kts 37°
2026-05-05 01:48 29.88598 -82.26833 10840 ft 303 kts 37°
2026-05-05 01:48 29.90275 -82.25298 10443 ft 301 kts 37°
2026-05-05 01:49 29.91894 -82.23819 10034 ft 291 kts 37°
2026-05-05 01:49 29.93479 -82.22369 9603 ft 284 kts 36°
2026-05-05 01:49 29.95006 -82.20972 9161 ft 278 kts 36°
2026-05-05 01:49 29.96511 -82.19594 8719 ft 272 kts 37°
2026-05-05 01:50 29.97958 -82.18271 8204 ft 253 kts 37°
2026-05-05 01:50 29.99341 -82.17006 7808 ft 251 kts 37°
2026-05-05 01:50 30.00708 -82.15756 7370 ft 251 kts 37°
2026-05-05 01:50 30.02083 -82.14494 6924 ft 251 kts 37°
2026-05-05 01:51 30.03464 -82.13228 6483 ft 252 kts 38°
2026-05-05 01:51 30.04837 -82.11972 6049 ft 252 kts 38°
2026-05-05 01:51 30.06224 -82.10720 5603 ft 252 kts 38°
2026-05-05 01:51 30.07613 -82.09489 5206 ft 249 kts 38°
2026-05-05 01:52 30.08999 -82.08282 4823 ft 246 kts 38°
2026-05-05 01:52 30.10324 -82.07154 4409 ft 229 kts 38°
2026-05-05 01:52 30.11610 -82.06079 4072 ft 224 kts 38°
2026-05-05 01:52 30.12891 -82.05022 3702 ft 224 kts 37°
2026-05-05 01:53 30.14154 -82.03982 3407 ft 220 kts 37°
2026-05-05 01:53 30.15384 -82.02984 3152 ft 215 kts 37°
2026-05-05 01:53 30.16601 -82.02005 2890 ft 211 kts 37°
2026-05-05 01:53 30.17823 -82.01047 2635 ft 207 kts 37°
2026-05-05 01:54 30.19011 -82.00150 2387 ft 204 kts 36°
2026-05-05 01:54 30.20247 -81.99360 2242 ft 197 kts 33°
2026-05-05 01:54 30.21431 -81.98631 2106 ft 191 kts 32°
2026-05-05 01:54 30.22644 -81.98049 1991 ft 185 kts 27°
2026-05-05 01:55 30.23823 -81.97517 1969 ft 173 kts 27°
2026-05-05 01:55 30.24897 -81.97046 1996 ft 162 kts 27°
2026-05-05 01:55 30.25938 -81.96590 1975 ft 156 kts 27°
2026-05-05 01:55 30.26957 -81.96143 1971 ft 154 kts 28°
2026-05-05 01:56 30.27956 -81.95712 1976 ft 153 kts 28°
2026-05-05 01:56 30.28959 -81.95273 1977 ft 152 kts 28°
2026-05-05 01:56 30.29963 -81.94837 1983 ft 157 kts 27°
2026-05-05 01:56 30.31013 -81.94376 1999 ft 164 kts 27°
2026-05-05 01:57 30.32084 -81.93916 1995 ft 164 kts 27°
2026-05-05 01:57 30.33167 -81.93449 1987 ft 164 kts 27°
2026-05-05 01:57 30.34227 -81.92987 1984 ft 163 kts 27°
2026-05-05 01:57 30.35299 -81.92522 1988 ft 163 kts 27°
2026-05-05 01:58 30.36369 -81.92054 1988 ft 164 kts 27°
2026-05-05 01:58 30.37450 -81.91588 1992 ft 166 kts 26°
2026-05-05 01:58 30.38548 -81.91107 1989 ft 167 kts 27°
2026-05-05 01:58 30.39638 -81.90627 1989 ft 167 kts 27°
2026-05-05 01:59 30.40731 -81.90138 1988 ft 167 kts 27°
2026-05-05 01:59 30.41816 -81.89654 1994 ft 164 kts 27°
2026-05-05 01:59 30.42854 -81.89171 1984 ft 154 kts 36°
2026-05-05 01:59 30.43529 -81.88357 1977 ft 136 kts 63°
2026-05-05 02:00 30.44015 -81.87406 1989 ft 133 kts 68°
2026-05-05 02:00 30.44413 -81.86462 1973 ft 127 kts 71°
2026-05-05 02:00 30.44765 -81.85523 1988 ft 128 kts 72°
2026-05-05 02:00 30.45103 -81.84541 1991 ft 130 kts 74°
2026-05-05 02:01 30.45419 -81.83572 1983 ft 127 kts 74°
2026-05-05 02:01 30.45718 -81.82642 1973 ft 119 kts 75°
2026-05-05 02:01 30.46002 -81.81731 1988 ft 121 kts 75°
2026-05-05 02:01 30.46283 -81.80823 1897 ft 118 kts 76°
2026-05-05 02:02 30.46560 -81.79937 1756 ft 115 kts 76°
2026-05-05 02:02 30.46828 -81.79063 1614 ft 113 kts 76°
2026-05-05 02:02 30.47091 -81.78203 1472 ft 112 kts 76°
2026-05-05 02:02 30.47354 -81.77352 1323 ft 111 kts 76°
2026-05-05 02:03 30.47634 -81.76520 1174 ft 113 kts 72°
2026-05-05 02:03 30.47942 -81.75655 1083 ft 116 kts 74°
2026-05-05 02:03 30.48189 -81.74749 1009 ft 116 kts 78°
2026-05-05 02:03 30.48443 -81.73866 824 ft 118 kts 74°
2026-05-05 02:04 30.48730 -81.72969 633 ft 119 kts 75°
2026-05-05 02:04 30.49000 -81.72058 465 ft 117 kts 74°
2026-05-05 02:04 30.49275 -81.71160 284 ft 117 kts 73°
2026-05-05 02:04 30.49544 -81.70262 122 ft 116 kts 74°
2026-05-05 02:05 30.49804 -81.69407 23 ft 105 kts 73°
2026-05-05 02:05 30.50027 -81.68673 21 ft 85 kts 71°
2026-05-05 02:05 30.50181 -81.68170 21 ft 47 kts 70°
2026-05-05 02:05 30.50281 -81.67835 21 ft 37 kts 69°
2026-05-05 02:06 30.50330 -81.67619 22 ft 14 kts 122°
2026-05-05 02:06 30.50270 -81.67583 22 ft 9 kts 160°
2026-05-05 02:06 30.50214 -81.67559 23 ft 8 kts 160°
2026-05-05 02:06 30.50166 -81.67537 24 ft 7 kts 159°
2026-05-05 02:07 30.50108 -81.67513 22 ft 10 kts 160°
2026-05-05 02:07 30.50038 -81.67484 21 ft 11 kts 159°
2026-05-05 02:07 30.49963 -81.67454 21 ft 11 kts 160°
2026-05-05 02:07 30.49886 -81.67423 21 ft 11 kts 163°
2026-05-05 02:08 30.49825 -81.67426 21 ft 5 kts 229°
2026-05-05 02:08 30.49820 -81.67471 21 ft 5 kts 281°
2026-05-05 02:08 30.49838 -81.67516 21 ft 6 kts 292°
2026-05-05 02:08 30.49832 -81.67539 21 ft 0 kts 191°
2026-05-05 02:09 30.49828 -81.67533 21 ft 1 kts 80°
2026-05-05 02:09 30.49844 -81.67535 21 ft 3 kts 291°
2026-05-05 02:09 30.49839 -81.67550 21 ft 0 kts 192°